Location: Batang Balui
(2.7000°N, 113.7833°E)
Time: 01:30:44
(UTC+00:00)

FO-29 - Pass Details

Date: 07 April 2023
Orbit: 799 x 1322 km, 98.5° (Epoch: 29 May)

Event Time Altitude Azimuth Distance (km) Brightness Sun altitude
Rises 21:39:42 0° 355° (N) 3,837 12.7 -11.4°
Reaches altitude 10° 21:42:35 10° 347° (NNW) 2,800 11.8 -10.7°
Maximum altitude 21:48:03 33° 285° (WNW) 1,534 10.1 -9.3°
Drops below altitude 10° 21:53:01 10° 223° (SW) 2,529 11.2 -8.1°
Sets 21:55:31 0° 213° (SSW) 3,414 12.0 -7.5°
